Weather History for Durango, CO

Change the Weather History Date:

Monday, October 3, 2011

  Actual Average Record
Temperature  
Mean Temperature 57 °F 52 °F  
Max Temperature 72 °F 69 °F 83 °F (1980)
Min Temperature 43 °F 36 °F 25 °F (1971)
Degree Days  
Heating Degree Days 8 13  
Month to date heating degree days 38  
Since 1 July heating degree days 262  
Cooling Degree Days 0 0  
Month to date cooling degree days 0  
Year to date cooling degree days 243  
Growing Degree Days 7 (Base 50)    
Moisture  
Dew Point 39 °F    
Average Humidity 55    
Maximum Humidity 76    
Minimum Humidity 28    
Precipitation  
Precipitation 0.01 in 0.05 in 0.95 in (1981)
Month to date precipitation 0.15  
Year to date precipitation 12.03  
Sea Level Pressure  
Sea Level Pressure 30.10 in    
Wind  
Wind Speed 3 mph (NE)    
Max Wind Speed 14 mph    
Max Gust Speed 18 mph    
Visibility 10 miles    
Events Rain    
T = Trace of Precipitation, MM = Missing Value Source: NWS Daily Summary

Daily Weather History Graph

Daily Weather History Graph

Search for Another Location

Airport:

Trip Planner

Search our weather history database for the weather conditions in past years. The results will help you decide how hot, cold, wet, or windy it might be!

Date:

Astronomy

Oct. 03, 2011 Rise Set
Actual Time 7:07 AM MDT 6:51 PM MDT
Civil Twilight 6:42 AM MDT 7:17 PM MDT
Nautical Twilight 6:11 AM MDT 7:47 PM MDT
Astronomical Twilight 5:41 AM MDT 8:17 PM MDT
Moon 2:01 PM MDT (10/3) No Moon Set
Length of Visible Light 12h 35m
Length of Day
11h 43m
Waxing Crescent, 46% of the Moon is Illuminated
Oct 3
Waxing Crescent
Oct 3
First Quarter
Oct 11
Full
Oct 19
Last Quarter
Oct 26
New

Hourly Weather History & Observations

Time (MDT) Temp. Windchill Dew Point Humidity Pressure Visibility Wind Dir Wind Speed Gust Speed Precip Events Conditions
12:53 AM 48.9 °F - 39.9 °F 71% 30.11 in 10.0 mi Calm Calm - N/A   Clear
2:53 AM 45.0 °F 43.5 °F 37.9 °F 76% 30.12 in 10.0 mi North 3.5 mph - N/A   Clear
3:53 AM 44.1 °F - 37.0 °F 76% 30.11 in 10.0 mi Calm Calm - N/A   Clear
4:53 AM 43.0 °F - 36.0 °F 76% 30.13 in 10.0 mi Calm Calm - N/A   Scattered Clouds
5:53 AM 43.0 °F - 36.0 °F 76% 30.14 in 10.0 mi Calm Calm - N/A   Scattered Clouds
6:53 AM 43.0 °F - 36.0 °F 76% 30.16 in 10.0 mi Calm Calm - N/A   Overcast
7:53 AM 46.0 °F 43.1 °F 37.9 °F 73% 30.18 in 10.0 mi North 5.8 mph - N/A   Clear
8:53 AM 53.1 °F - 39.9 °F 61% 30.18 in 10.0 mi NE 3.5 mph - N/A   Clear
9:53 AM 59.0 °F - 41.0 °F 51% 30.18 in 10.0 mi ESE 5.8 mph - N/A   Clear
10:53 AM 63.0 °F - 39.9 °F 43% 30.15 in 10.0 mi East 8.1 mph - N/A   Clear
12:53 PM 69.1 °F - 39.0 °F 33% 30.11 in 10.0 mi Variable 5.8 mph - N/A   Clear
1:53 PM 71.1 °F - 37.9 °F 30% 30.08 in 10.0 mi South 13.8 mph 18.4 mph N/A   Mostly Cloudy
2:53 PM 70.0 °F - 35.1 °F 28% 30.06 in 10.0 mi South 9.2 mph - N/A   Partly Cloudy
3:53 PM 66.0 °F - 46.9 °F 50% 30.07 in 10.0 mi SW 6.9 mph - 0.00 in Rain Light Rain
4:53 PM 71.1 °F - 39.0 °F 31% 30.04 in 10.0 mi SW 4.6 mph - 0.00 in   Scattered Clouds
5:53 PM 69.1 °F - 35.1 °F 29% 30.04 in 10.0 mi West 3.5 mph - N/A   Mostly Cloudy
7:53 PM 60.1 °F - 39.0 °F 46% 30.08 in 10.0 mi North 10.4 mph - N/A   Mostly Cloudy
8:53 PM 59.0 °F - 39.9 °F 49% 30.06 in 10.0 mi Calm Calm - 0.00 in   Overcast
9:53 PM 57.0 °F - 41.0 °F 55% 30.06 in 10.0 mi East 3.5 mph - N/A   Overcast
10:53 PM 55.0 °F - 43.0 °F 64% 30.05 in 10.0 mi Calm Calm - 0.01 in   Mostly Cloudy
11:53 PM 55.0 °F - 41.0 °F 59% 30.04 in 10.0 mi NNW 3.5 mph - N/A   Overcast